#timestamp,LO_Frequency,Hit,StdDev 
1542049215.9,286046997.3,P
1542049235.7,286046995.6,P
1542049255.5,286046996.1,P
1542049275.4,286046996.3,Y
1542049295.2,286046998.5,P
1542049315.1,286046998.9,N
1542049316.0,286046998.9,N
1542049335.8,286047001.2,N
1542049355.6,286046998.4,N
1542049375.5,286046998.1,N
1542049395.3,286046998.4,N
1542049415.1,286046998.5,N
1542049435.9,286047000.8,N
1542049455.7,286046998.4,N
1542049475.6,286046999.2,N
1542049495.4,286046998.4,N
1542049515.2,286046998.7,N
1542049535.1,286046996.7,Y
1542049536.0,286046996.7,P
1542049555.8,286046996.7,P
1542049575.7,286046997.1,N
1542049595.5,286046997.3,Y
1542049615.3,286047000.4,P
1542049635.2,286046999.0,N
1542049655.0,286046999.2,N
1542049655.9,286046999.2,N
1542049675.7,286046998.2,N
1542049695.6,286047000.9,N
1542049715.4,286047002.4,N
1542049735.3,286047002.4,N
1542049755.1,286047000.6,N
1542049775.8,286047000.4,N
1542049795.7,286047000.7,N
1542049815.5,286046998.2,N
1542049835.4,286046998.6,N
1542049855.2,286046998.9,N
1542049875.0,286046999.3,N
1542049875.9,286046999.3,N
1542049895.8,286046999.1,N
1542049915.6,286046996.7,N
1542049935.5,286046994.9,Y
1542049955.3,286046997.0,P
1542049975.1,286046999.6,N
1542049995.9,286047001.0,N
1542050015.7,286047000.8,N
1542050035.5,286046998.2,N
1542050055.4,286046998.9,N
1542050075.2,286046999.2,N
1542050095.0,286046999.5,N
1542050096.0,286046999.5,N
1542050115.8,286046999.2,N
1542050135.6,286046999.3,N
1542050155.5,286046996.9,Y
1542050175.3,286046998.8,P
1542050195.1,286047001.0,P
1542050215.9,286047000.7,N
1542050235.7,286046998.1,N
1542050255.6,286047000.7,N
1542050275.4,286047000.6,N
1542050295.2,286047000.7,N
1542050315.1,286047000.3,N
1542050316.0,286047000.3,N
1542050335.8,286047000.3,N
1542050355.6,286047000.9,N
1542050375.5,286047000.6,N
1542050395.3,286047001.1,N
1542050415.2,286047001.2,N
1542050435.9,286046998.5,N
1542050455.7,286046998.9,N
1542050475.6,286046996.8,Y
1542050495.4,286046999.1,P
1542050515.2,286046998.4,P
1542050535.1,286046998.8,N
1542050536.0,286046998.8,N
1542050555.8,286046998.9,N
1542050575.7,286046997.0,Y
1542050595.5,286046998.9,P
1542050615.3,286046998.1,P
1542050635.2,286047001.0,N
1542050655.0,286046998.1,N
1542050655.9,286046998.1,N
1542050675.7,286046998.5,N
1542050695.6,286046998.3,N
1542050715.4,286046998.3,N
1542050735.3,286046999.4,N
1542050755.1,286046997.1,Y
1542050775.8,286046996.9,P
1542050795.7,286046999.0,N
1542050815.5,286046996.7,P
1542050835.3,286046998.9,N
1542050855.2,286046999.0,N
1542050875.0,286046998.4,N
1542050875.9,286046998.4,N
1542050895.8,286046998.3,N
1542050915.6,286046998.8,N
1542050935.4,286046997.0,Y
1542050955.3,286047000.0,P
1542050975.1,286047000.4,N
1542050995.8,286046999.8,N
1542051015.7,286047000.9,N
1542051035.5,286047001.0,N
1542051055.4,286046999.8,N
1542051075.2,286047002.4,N
1542051095.0,286047001.5,N
1542051095.9,286047001.5,N
1542051115.8,286047001.5,N
1542051135.6,286047003.9,Y
1542051155.5,286047002.4,P
1542051175.3,286047002.6,N
1542051195.1,286047002.5,N
1542051215.9,286047004.4,Y
1542051235.7,286047002.8,P
1542051255.6,286047000.4,N
1542051275.4,286047000.0,N
1542051295.2,286046999.8,N
1542051315.1,286047000.9,N
1542051316.0,286047000.9,N
1542051335.8,286047001.0,N
1542051355.7,286047000.9,N
1542051375.5,286046999.8,N
1542051395.3,286047001.9,N
1542051415.2,286047002.1,N
1542051435.0,286047002.2,N
1542051435.9,286047002.2,N
1542051455.7,286047002.3,N
1542051475.6,286047002.8,N
1542051495.4,286047002.5,N
1542051515.3,286047001.4,N
1542051535.1,286047001.7,N
1542051555.8,286047001.9,N
1542051575.7,286047002.8,N
1542051595.5,286046999.9,N
1542051615.4,286047002.8,N
1542051635.2,286046999.8,N
1542051655.0,286047002.7,N
1542051655.9,286047002.7,N
1542051675.8,286047002.7,N
1542051695.6,286046999.7,N
1542051715.4,286047002.0,N
1542051735.3,286047003.8,Y
1542051755.1,286047002.1,P
1542051775.9,286047002.3,P
1542051795.7,286047002.8,P
1542051815.5,286047000.1,N
1542051835.4,286047002.8,N
1542051855.2,286047001.8,N
1542051875.1,286047001.6,N
1542051876.0,286047001.6,N
1542051895.8,286047001.7,N
1542051915.6,286047002.1,N
1542051935.5,286047002.2,Y
1542051955.3,286047000.2,P
1542051975.1,286047000.0,N
1542051995.9,286047000.6,N
1542052015.7,286047000.7,N
1542052035.6,286047000.4,N
1542052055.4,286047000.3,N
1542052075.2,286047000.1,N
1542052095.1,286047002.0,Y
1542052096.0,286047002.0,P
1542052115.8,286047001.5,N
1542052135.7,286046999.7,N
1542052155.5,286047000.3,N
1542052175.3,286046999.9,N
1542052195.2,286047000.1,N
1542052215.9,286046998.1,N
1542052235.7,286047000.0,N
1542052255.6,286046998.1,N
1542052275.4,286047001.0,N
1542052295.2,286047000.7,N
1542052315.1,286047000.7,N
1542052316.0,286047000.7,N
1542052335.8,286047000.6,N
1542052355.7,286046998.2,N
1542052375.5,286047001.2,N
1542052395.3,286047001.0,N
1542052415.2,286047001.0,N
1542052435.0,286046998.2,N
1542052435.9,286046998.2,N
1542052455.8,286047000.5,N
1542052475.6,286047000.2,N
1542052525.4,286047002.8,E
1542052535.4,286047000.7,N
1542052555.2,286046999.6,P
1542052575.0,286046999.3,N
1542052575.9,286046999.3,N
1542052595.8,286046998.8,N
1542052615.6,286046996.9,Y
1542052635.5,286046996.6,P
1542052655.3,286046999.0,N
1542052675.1,286046999.1,N
1542052695.9,286047001.2,N
1542052715.7,286047000.8,N
1542052735.5,286047001.1,N
1542052755.4,286047001.2,N
1542052775.2,286047000.2,N
1542052795.0,286047000.8,N
1542052795.9,286047000.8,N
